This is the latest recevied weather packets stored in our database for station/object ALANSN-2. If no packets are shown the sender has not sent any weather packets the latest 10 day(s).
| Time | Temp. | Humidity | Pressure | Rain* | Wind** | Luminosity | Snow |
|---|---|---|---|---|---|---|---|
| 1787575618 | 15.56° C | 90% | 1024.5 hPa | 0 mm | - | 42 W/m² | - |
| 1787575319 | 15.56° C | 90% | 1024.5 hPa | 0 mm | - | 42 W/m² | - |
| 1787575020 | 15.56° C | 91% | 1024.6 hPa | 0 mm | - | 43 W/m² | - |
| 1787574719 | 15° C | 90% | 1024.5 hPa | 0 mm | - | 42 W/m² | - |
| 1787574420 | 15° C | 90% | 1024.5 hPa | 0 mm | - | 42 W/m² | - |
| 1787574119 | 15° C | 90% | 1024.3 hPa | 0 mm | - | 26 W/m² | - |
| 1787573820 | 15° C | 89% | 1024.6 hPa | 0 mm | - | 26 W/m² | - |
| 1787573519 | 15° C | 89% | 1024.6 hPa | 0 mm | - | 26 W/m² | - |
| 1787573220 | 15° C | 90% | 1024.5 hPa | 0 mm | - | 26 W/m² | - |
| 1787572919 | 15° C | 90% | 1024.3 hPa | 0 mm | - | 21 W/m² | - |
| 1787572620 | 15° C | 90% | 1024.3 hPa | 0 mm | - | 21 W/m² | - |
| 1787572319 | 15° C | 90% | 1024.1 hPa | 0 mm | - | 27 W/m² | - |
| 1787572020 | 15° C | 89% | 1024.2 hPa | 0 mm | - | 6 W/m² | - |
| 1787571719 | 15° C | 89% | 1024.2 hPa | 0 mm | - | 6 W/m² | - |
| 1787571420 | 15° C | 89% | 1024.1 hPa | 0 mm | - | 7 W/m² | - |
| 1787571119 | 15° C | 90% | 1024.1 hPa | 0 mm | - | 5 W/m² | - |
| 1787570820 | 15° C | 90% | 1024.1 hPa | 0 mm | - | 5 W/m² | - |
| 1787570519 | 15° C | 89% | 1024 hPa | 0 mm | - | 6 W/m² | - |
| 1787570220 | 15° C | 89% | 1023.9 hPa | 0 mm | - | 1 W/m² | - |
| 1787569919 | 15° C | 89% | 1023.9 hPa | 0 mm | - | 1 W/m² | - |
| 1787569620 | 15° C | 90% | 1024.3 hPa | 0 mm | - | 1 W/m² | - |
| 1787569319 | 15° C | 90% | 1024.1 hPa | 0 mm | - | 0 W/m² | - |
| 1787569020 | 15° C | 89% | 1023.9 hPa | 0 mm | - | 0 W/m² | - |
| 1787568719 | 15° C | 89% | 1024 hPa | 0 mm | - | 0 W/m² | - |
| 1787568420 | 15° C | 89% | 1023.7 hPa | 0 mm | - | 0 W/m² | - |
* Rain latest hour (hover to see other rain measurements)
** Current wind speed in m/s (hover to see current wind gust speed)